www.pogodaiklimat.ru
ПОГОДА в Фултоне
Время
и дата
20:54 22.06
21:54 22.06
22:03 22.06
22:11 22.06
22:54 22.06
23:54 22.06
00:54 23.06
01:54 23.06
02:11 23.06
02:54 23.06
03:54 23.06
04:34 23.06
04:54 23.06
05:05 23.06
05:54 23.06
06:23 23.06
06:54 23.06
07:01 23.06
07:54 23.06
08:54 23.06
09:24 23.06
09:54 23.06
10:54 23.06
11:54 23.06
12:54 23.06
13:54 23.06
14:54 23.06
15:54 23.06
16:54 23.06
17:54 23.06
18:54 23.06
19:54 23.06
20:54 23.06
21:54 23.06
22:54 23.06
23:54 23.06
00:54 24.06
01:54 24.06
02:54 24.06
03:54 24.06
04:54 24.06
05:54 24.06
06:54 24.06
07:54 24.06
08:54 24.06
09:54 24.06
10:54 24.06
11:54 24.06
Ветер
(напр.,м/с)
Видим. Явления Облачность Т
(С)
Тd
(С)
f
(%)
Тe
(С)
Тes
(С)
Комфортность P
(гПа)
Po
(гПа)
Тmin
(С)
Tmax
(С)
R
(мм)
R24
(мм)
S
(см)
нст 1 16 км 10/10 990 м +21.7 +16.7 73 +26 +26 душно 1011.2 994.1
нст 1 6 км дождь 10/10 930 м +20.6 +15.6 73 +24 +24 комфорт 1011.7 994.5 1.3
нст 1 4 км дождь 10/10 900 м +19.4 +16.1 81 +22 +22 комфорт 994.5
нст 1 11 км слабый дождь 10/10 900 м +19.4 +16.1 81 +21 +21 комфорт 994.5
ЮВ 1 16 км 10/10 810 м +18.9 +16.7 87 +21 +21 комфорт 1011.6 994.5
нст 1 14 км 10/10 690 м +18.3 +16.1 87 +19 +19 1011.4 994.5
нст 1 16 км 10/10 630 м +18.9 +16.1 84 +21 +21 комфорт 1011.0 993.8 +18.3 +22.8 3.0
нст 1 16 км 8/8 510 м +18.3 +16.1 87 +19 +19 1010.8 993.8
ЮВ 1 16 км 5/5 570 м +17.8 +16.1 90 +18 +18 993.8
нст 1 16 км 2/2 720 м +17.2 +16.1 93 +18 +18 1010.6 993.5
ЮВ 1 16 км ясно +17.2 +15.6 90 +18 +18 1010.5 993.5
ЮВ 1 16 км 8/8 510 м +16.7 +15.6 93 +17 +17 993.8
ЮВ 1 16 км 8/8 450 м +16.7 +15.6 93 +17 +17 1010.6 993.5
штиль 0 16 км 5/5 450 м +16.7 +15.6 93 +17 +17 993.8
штиль 0 16 км 2/2 660 м +17.2 +15.6 90 +17 +17 1011.0 993.8
Ю 1 16 км 8/8 300 м +17.2 +15.6 90 +18 +18 994.1
ЮЗ 1 16 км 8/8 840 м +17.8 +15.6 87 +18 +19 1011.6 994.5 +16.7 +18.9 3.0
штиль 0 16 км 2/2 840 м +17.8 +15.6 87 +18 +22 994.5
ЮЗ 1 16 км ясно +18.3 +14.4 78 +19 +23 1012.0 994.8
нст 1 16 км ясно +20.6 +13.9 65 +23 +30 комфорт 1012.4 995.1
штиль 0 16 км 8/8 840 м +20.6 +14.4 68 +23 +26 комфорт 995.5
ЮЗ 1 16 км 10/10 960 м +21.7 +15.0 66 +25 +25 комфорт 1012.9 995.8
нст 1 16 км ясно +22.8 +16.1 66 +27 +40 душно 1012.4 995.1
нст 1 16 км 8/8 1110 м +23.9 +16.1 62 +27 +30 жарко 1012.6 995.5
Ю 1 16 км 8/8 1050 м +23.3 +16.1 64 +28 +31 душно 1012.7 995.5 +17.8 +25.0
нст 1 16 км 10/10 1080 м +23.9 +16.1 62 +27 +27 жарко 1012.4 995.1
С 1 16 км 10/10 1200 м +23.9 +16.7 64 +27 +27 жарко 1012.4 995.1
штиль 0 16 км 10/0 2100 м
[Ac]
+25.0 +17.2 62 +29 +34 душно 1012.2 995.1
С 1 16 км 8/8 1050 м +23.9 +16.7 64 +27 +29 жарко 1012.6 995.5
С 1 16 км 5/2 1800 м
[Ac]
+23.3 +16.1 64 +28 +31 душно 1012.9 995.8
СЗ 1 16 км 2/0 2700 м
[Ac]
+21.7 +16.7 73 +26 +27 душно 1013.3 996.1 +21.7 +25.6
штиль 0 16 км ясно +18.9 +15.6 81 +20 +20 1013.2 996.1
штиль 0 16 км 10/5 1950 м
[Ac]
+18.3 +16.1 87 +19 +19 1013.9 996.8
штиль 0 16 км 10/8 1800 м
[Ac]
+18.9 +16.1 84 +20 +20 1013.6 996.5
штиль 0 16 км 8/8 1500 м
[Ac]
+17.8 +16.1 90 +18 +18 1013.7 996.5
Ю 1 16 км 2/0 2700 м
[Ac]
+18.3 +16.1 87 +19 +19 1013.9 996.8
Ю 1 16 км ясно +17.8 +15.6 87 +18 +18 1014.1 996.8 +17.8 +21.7
штиль 0 16 км 5/5 1800 м +16.1 +15.0 93 +16 +16 1014.2 997.1
штиль 0 16 км ясно +16.1 +15.0 93 +16 +16 1014.3 997.1
штиль 0 13 км 5/5 1800 м +15.0 +13.9 93 +15 +15 1014.6 997.5
Ю 1 16 км 2/0 2100 м
[Ac]
+16.7 +15.0 90 +17 +17 1015.1 997.8
ЮЗ 1 16 км ясно +17.8 +16.1 90 +18 +18 1015.3 998.1
З 1 16 км ясно +19.4 +15.6 79 +21 +23 комфорт 1015.8 998.4 +15.0 +19.4
З 1 16 км ясно +21.1 +15.6 71 +24 +28 комфорт 1016.4 999.1
ЮЗ 1 16 км ясно +22.2 +15.6 66 +26 +34 душно 1016.5 999.4
нст 1 16 км ясно +24.4 +15.6 58 +27 +39 жарко 1016.5 999.4
нст 1 16 км ясно +25.0 +15.0 54 +28 +41 жарко 1016.6 999.4
З 2 16 км ясно +25.0 +15.0 54 +28 +40 жарко 1016.8 999.8
Местоположение метеостанции Oswego County Airport: широта 43.3508 долгота -76.3881 высота над уровнем моря 145 м.
В архиве по умолчанию представлена погода в Фултоне за последние 1-2 суток. Обновление информации о фактической погоде в базе происходит ежечасно! Архивные данные за месяц целиком и за предыдущие месяцы Вы можете получить, выбрав интересующий диапазон дат из раскрывающегося списка и нажав кнопку "Ввод!".
Внимание! Архив погоды МЕТАР в базе сайта по станциям, не включенным в климатический монитор, хранится не более 60 дней. Нет смысла пытаться выбрать более раннюю дату.
*Определитесь, кто Вы:
Внимание! Время в таблицах - местное (без учета летнего времени). Для получения всемирного времени необходимо вычесть поправку, которая равна -5 ч.
Смотрите также архив погоды в соседних городах и на ближайших метеорологических станциях:
Партнеры нашего сайта:      
Пояснения к столбцам:
  • Ветер - указаны скорость ветра в м/с - средняя за 10 мин, порывы в срок и между сроками (в фигурных скобках) и направление, откуда дует ветер: С - северный,
  • СВ - северо-восточный, В - восточный, ЮВ - юго-восточный, Ю - южный, ЮЗ - юго-западный, З - западный, СЗ - северо-западный.
  • Видимость - горизонтальная дальность видимости в метрах или километрах. При видимости от 1 до 10 км при отсутствии осадков обычно наблюдается дымка, при ухудшении видимости до 1 км и менее - туман. В сухую погоду видимость может ухудшаться дымом, пылью или мглою.
  • Явления - указаны атмосферные явления, наблюдавшиеся в срок или в последний час перед сроком; фигурными скобками обозначены явления, наблюдавшиеся между сроками (за 1-3 часа до срока); квадратными скобками обозначены град или гололедные отложения с указанием их диаметра в мм.
  • Облачность - указаны через наклонную черту общая и нижняя облачность в баллах и высота нижней границы облаков в метрах; квадратными скобками обозначены формы облаков: Ci - перистые, Cs - перисто-слоистые, Cc - перисто-кучевые, Ac - высококучевые, As - высокослоистые, Sc - слоисто-кучевые, Ns - слоисто-дождевые, Cu - кучевые, Cb - кучево-дождевые. Подробнее классификацию облаков см. в Атласе облаков (PDF).
  • T - Температура воздуха - температура, измеренная на высоте 2 м над землей.
  • Td - Температура точки росы - температура, при понижении до которой содержащийся в воздухе водяной пар достигнет насыщения.
  • f - Относительная влажность воздуха - влажноcть воздуха, измеренная на высоте 2 м над землей.
  • Te - Эффективная температура - температура, которую ощущает одетый по сезону человек в тени. Характеристика душности погоды. При расчете учитывается влияние влажности воздуха и скорости ветра на теплоощущения человека.
  • Tes - Эффективная температура на солнце - температура, которую ощущает человек, с поправкой на солнечный нагрев. Характеристика знойности погоды. Зависит от высоты солнца над горизонтом, облачности и скорости ветра. Ночью, в пасмурную погоду, а также при ветре 12 м/с и более поправка равна нулю.
  • P - Атмосферное давление - приведенное к уровню моря атмосферное давление.
  • Po - Атмосферное давление - измеренное на уровне метеостанции атмосферное давление.
  • Tmin - Минимальная температура - минимум температуры воздуха на высоте 2 м над землей.
  • Tmax - Максимальная температура - максимум температуры воздуха на высоте 2 м над землей.
  • R - Количество осадков - Количество выпавших осадков за период времени, мм. При наведении курсора мыши на число - период времени, за который выпало указанное количество осадков.
  • R24 - Количество осадков - Количество выпавших осадков за 24 часа, мм.
  • S - Снежный покров - Высота снежного покрова, см. При наведении курсора мыши на число - состояние снежного покрова и степень покрытия местности в баллах.